Location: Unspecified
(50.0830°N, 0.0000°E)
Time: 14:16:21
(UTC+00:00)

ISS - Visible Passes

Search period start: 21 November 2019 00:00
Search period end: 01 December 2019 00:00
Orbit: 412 x 421 km, 51.6° (Epoch: 21 November)

Date Brightness Start Highest point End Pass type
(mag) Time Alt. Az. Time Alt. Az. Time Alt. Az.
22 Nov -0.7 19:02:36 10° SW 19:02:53 12° SW 19:02:53 12° SW visible
23 Nov -2.1 18:14:35 10° SSW 18:16:40 25° S 18:16:40 25° S visible
24 Nov -1.9 17:26:49 10° S 17:29:16 19° SE 17:30:22 16° ESE visible
24 Nov -1.1 19:02:15 10° WSW 19:03:17 18° WSW 19:03:17 18° WSW visible
25 Nov -1.4 16:39:32 10° SSE 16:41:04 13° SE 16:42:38 10° ESE visible
25 Nov -3.3 18:13:57 10° SW 18:16:55 51° S 18:16:55 51° S visible
26 Nov -2.9 17:25:45 10° SW 17:28:54 38° SSE 17:30:29 23° E visible
26 Nov -1.1 19:02:10 10° W 19:03:23 21° W 19:03:23 21° W visible
27 Nov -2.3 16:37:43 10° SSW 16:40:35 26° SE 16:43:28 10° E visible
27 Nov -3.8 18:13:42 10° WSW 18:16:54 80° WSW 18:16:54 80° WSW visible
28 Nov -3.7 17:25:18 10° WSW 17:28:38 71° SSE 17:30:23 26° E visible
28 Nov -1.1 19:02:07 10° W 19:03:17 20° W 19:03:17 20° W visible
29 Nov -3.2 16:36:58 10° SW 16:40:13 51° SSE 16:43:31 10° ENE visible
29 Nov -3.6 18:13:36 10° W 18:16:44 65° NW 18:16:44 65° NW visible
30 Nov -3.8 17:25:06 10° W 17:28:27 77° NNW 17:30:11 26° ENE visible
30 Nov -1.0 19:01:59 10° WNW 19:03:04 19° WNW 19:03:04 19° WNW visible
